Location: Schommer Observatory
(40.5200°N, 74.4500°W)
Time: 08:37:28
(UTC-04:00)

Tiangong 1 - Pass Details

Date: 07 October 2017
Orbit: 293 x 320 km, 42.8° (Epoch: 19 October)

Event Time Altitude Azimuth Distance (km) Brightness Sun altitude
Rises 20:22:15 0° 271° (W) 2,028 6.2 -22.1°
Reaches altitude 10° 20:24:16 10° 277° (W) 1,195 4.7 -22.5°
Enters shadow 20:25:32 24° 288° (WNW) 701 3.1 -22.7°
